BV5AB-3 Weather Reports


time (UTC)temp
F
wind
direction
speed
knots
gust
knots
rain 1hr
in
rain 24hr
in
rain mn
in
humidity
%
barometer
mb
20260505031958 84 0 0.0 0.0 0.00 0.00 0.00 87 984.7
20260505030958 84 0 0.0 0.0 0.00 0.00 0.00 87 984.8
20260505025958 84 0 0.0 0.0 0.00 0.00 0.00 87 985.1
20260505024958 84 0 0.0 0.0 0.00 0.00 0.00 87 985.3
20260505023958 84 0 0.0 0.0 0.00 0.00 0.00 87 985.0
20260505022957 84 0 0.0 0.0 0.00 0.00 0.00 87 985.1
20260505021956 84 0 0.0 0.0 0.00 0.00 0.00 87 985.1
20260505020957 84 0 0.0 0.0 0.00 0.00 0.00 86 985.2
20260505015957 84 0 0.0 0.0 0.00 0.00 0.00 86 985.1
20260505014957 84 0 0.0 0.0 0.00 0.00 0.00 86 984.8
20260505013958 84 0 0.0 0.0 0.00 0.00 0.00 85 985.1
20260505012958 84 0 0.0 0.0 0.00 0.00 0.00 85 985.2
20260505011958 84 0 0.0 0.0 0.00 0.00 0.00 85 985.2
20260505010958 84 0 0.0 0.0 0.00 0.00 0.00 84 985.1
20260505005958 84 0 0.0 0.0 0.00 0.00 0.00 84 985.0
20260505004958 84 0 0.0 0.0 0.00 0.00 0.00 84 984.9
20260505003958 84 0 0.0 0.0 0.00 0.00 0.00 84 984.9
20260505002958 84 0 0.0 0.0 0.00 0.00 0.00 83 984.8
20260505001958 84 0 0.0 0.0 0.00 0.00 0.00 83 984.8
20260505000957 84 0 0.0 0.0 0.00 0.00 0.00 84 984.8
20260504235957 84 0 0.0 0.0 0.00 0.00 0.00 84 984.7
20260504234957 84 0 0.0 0.0 0.00 0.00 0.00 85 984.6
20260504233957 84 0 0.0 0.0 0.00 0.00 0.00 85 984.7
20260504232957 84 0 0.0 0.0 0.00 0.00 0.00 85 984.5
20260504231957 84 0 0.0 0.0 0.00 0.00 0.00 85 984.5
20260504230957 84 0 0.0 0.0 0.00 0.00 0.00 86 984.5
20260504225957 84 0 0.0 0.0 0.00 0.00 0.00 86 984.2
20260504224957 84 0 0.0 0.0 0.00 0.00 0.00 86 984.2
20260504223957 84 0 0.0 0.0 0.00 0.00 0.00 89 984.1
20260504100321 91 0 0.0 0.0 0.00 0.00 0.00 40 981.0
20260504081619 91 0 0.0 0.0 0.00 0.00 0.00 38 979.6
20260504081117 91 0 0.0 0.0 0.00 0.00 0.00 38 979.6
20260504080619 91 0 0.0 0.0 0.00 0.00 0.00 38 979.6
20260504050618 93 0 0.0 0.0 0.00 0.00 0.00 36 980.1
20260504045618 93 0 0.0 0.0 0.00 0.00 0.00 37 980.2
20260504044617 93 0 0.0 0.0 0.00 0.00 0.00 37 980.3
20260504044116 93 0 0.0 0.0 0.00 0.00 0.00 37 980.3
20260504043617 93 0 0.0 0.0 0.00 0.00 0.00 37 980.4
20260504042617 93 0 0.0 0.0 0.00 0.00 0.00 37 980.3
20260504041617 93 0 0.0 0.0 0.00 0.00 0.00 37 980.5
20260504041116 93 0 0.0 0.0 0.00 0.00 0.00 37 980.5
20260504040617 93 0 0.0 0.0 0.00 0.00 0.00 36 980.6
20260504035617 93 0 0.0 0.0 0.00 0.00 0.00 36 980.4
20260504034617 93 0 0.0 0.0 0.00 0.00 0.00 37 980.5
20260504034116 93 0 0.0 0.0 0.00 0.00 0.00 37 980.5
20260504033617 93 0 0.0 0.0 0.00 0.00 0.00 37 980.5